Stations météo

réclame
Mon MeteoGroup
Aviano, Italie (16036): Température de l'air & dewpoint: 22.05.2018 12:00:00 - 28.05.2018 12:00:00 (CEST)Aviano, Italie (16036): Vitesse du vent: 22.05.2018 12:00:00 - 28.05.2018 12:00:00 (CEST)Aviano, Italie (16036): Direction du vent: 22.05.2018 12:00:00 - 28.05.2018 12:00:00 (CEST)Aviano, Italie (16036): reduced air pressure: 22.05.2018 12:00:00 - 28.05.2018 12:00:00 (CEST)Aviano, Italie (16036): visibility: 22.05.2018 12:00:00 - 28.05.2018 12:00:00 (CEST)
Date & Time tt [°C] td [°C] ff [km/h] ff [knt] dd ppp [hPa] vv [km]
28.05.2018 12:00:00 - - - - - - -
28.05.2018 11:00:00 27,8 18,8 9 5 ENE 1018,0 25
28.05.2018 10:00:00 27,0 18,0 8 4 E - 10
28.05.2018 09:00:00 25,0 18,0 8 4 NE - 10
28.05.2018 08:00:00 22,4 18,8 5 3 NW 1017,0 25
28.05.2018 07:00:00 21,0 18,0 8 4 NNE - 10
28.05.2018 06:00:00 19,0 17,0 11 6 NE - 10
28.05.2018 05:00:00 - - - - - - -
28.05.2018 04:00:00 - - - - - - -
28.05.2018 03:00:00 - - - - - - -
28.05.2018 02:00:00 - - - - - - -
28.05.2018 01:00:00 - - - - - - -
28.05.2018 00:00:00 - - - - - - -
27.05.2018 23:00:00 - - - - - - -
27.05.2018 22:00:00 - - - - - - -
27.05.2018 21:00:00 - - - - - - -
27.05.2018 20:00:00 - - - - - - -
27.05.2018 19:00:00 - - - - - - -
27.05.2018 18:00:00 - - - - - - -
27.05.2018 17:00:00 - - - - - - -
27.05.2018 16:00:00 - - - - - - -
27.05.2018 15:00:00 - - - - - - -
27.05.2018 14:00:00 - - - - - - -
27.05.2018 13:00:00 - - - - - - -
27.05.2018 12:00:00 - - - - - - -
27.05.2018 11:00:00 - - - - - - -
27.05.2018 10:00:00 - - - - - - -
27.05.2018 09:00:00 - - - - - - -
27.05.2018 08:00:00 - - - - - - -
27.05.2018 07:00:00 - - - - - - -
27.05.2018 06:00:00 - - - - - - -
27.05.2018 05:00:00 - - - - - - -
27.05.2018 04:00:00 - - - - - - -
27.05.2018 03:00:00 - - - - - - -
27.05.2018 02:00:00 - - - - - - -
27.05.2018 01:00:00 - - - - - - -
27.05.2018 00:00:00 - - - - - - -
26.05.2018 23:00:00 - - - - - - -
26.05.2018 22:00:00 23,0 20,0 4 2 NNE - 10
26.05.2018 21:00:00 24,0 20,0 8 4 N - 10
26.05.2018 20:00:00 26,0 20,1 8 4 N 1017,8 25
26.05.2018 19:00:00 27,0 20,0 8 4 N - 10
26.05.2018 18:00:00 27,0 18,0 2 1 SSW - 10
26.05.2018 17:00:00 27,2 18,2 9 5 W 1018,4 25
26.05.2018 16:00:00 28,0 19,0 4 2 W - 10
26.05.2018 15:00:00 28,0 18,0 8 4 SE - 10
26.05.2018 14:00:00 27,2 17,1 8 4 S 1019,3 25
26.05.2018 13:00:00 26,0 17,0 5 3 NNE - 10
26.05.2018 12:00:00 26,0 14,0 4 2 WSW - 10
26.05.2018 11:00:00 25,0 16,2 8 4 E 1019,5 30
26.05.2018 10:00:00 23,0 17,0 4 2 ENE - 10
26.05.2018 09:00:00 21,0 17,0 5 3 W - 10
26.05.2018 08:00:00 19,4 17,0 4 2 NW 1019,3 30
26.05.2018 07:00:00 19,0 18,0 5 3 ESE - 10
26.05.2018 06:00:00 18,0 18,0 4 2 NE - 10
26.05.2018 05:00:00 - - - - - - -
26.05.2018 04:00:00 - - - - - - -
26.05.2018 03:00:00 - - - - - - -
26.05.2018 02:00:00 - - - - - - -
26.05.2018 01:00:00 - - - - - - -
26.05.2018 00:00:00 - - - - - - -
25.05.2018 23:00:00 - - - - - - -
25.05.2018 22:00:00 23,0 20,0 9 5 NE - 10
25.05.2018 21:00:00 24,0 20,0 13 7 NE - 10
25.05.2018 20:00:00 25,4 18,1 15 8 E 1014,5 25
25.05.2018 19:00:00 28,0 16,0 5 3 NW - 10
25.05.2018 18:00:00 27,0 16,0 8 4 ENE - 10
25.05.2018 17:00:00 27,8 15,1 0 0 N 1013,7 25
25.05.2018 16:00:00 28,0 16,0 9 5 SSW - 10
25.05.2018 15:00:00 27,0 17,0 4 2 WNW - 10
25.05.2018 14:00:00 26,6 17,4 13 7 WNW 1014,6 20
25.05.2018 13:00:00 26,0 17,0 9 5 W - 10
25.05.2018 12:00:00 25,0 19,0 5 3 SW - 10
25.05.2018 11:00:00 25,0 17,5 4 2 SE 1014,8 35
25.05.2018 10:00:00 23,0 18,0 4 2 WSW - 10
25.05.2018 09:00:00 21,0 17,0 4 2 SW - 10
25.05.2018 08:00:00 19,6 16,4 5 3 W 1014,9 35
25.05.2018 07:00:00 18,0 16,0 4 2 SE - 10
25.05.2018 06:00:00 17,0 16,0 4 2 NE - 10
25.05.2018 05:00:00 - - - - - - -
25.05.2018 04:00:00 - - - - - - -
25.05.2018 03:00:00 - - - - - - -
25.05.2018 02:00:00 - - - - - - -
25.05.2018 01:00:00 - - - - - - -
25.05.2018 00:00:00 - - - - - - -
24.05.2018 23:00:00 - - - - - - -
24.05.2018 22:00:00 19,0 17,0 11 6 NNE - 10
24.05.2018 21:00:00 20,0 17,0 11 6 N - 10
24.05.2018 20:00:00 19,6 17,9 15 8 N 1014,9 25
24.05.2018 19:00:00 19,0 17,0 26 14 NNE - 10
24.05.2018 18:00:00 22,0 20,0 8 4 NNE - 10
24.05.2018 17:00:00 25,0 18,2 26 14 E 1014,6 25
24.05.2018 16:00:00 28,0 17,0 5 3 N - 10
24.05.2018 15:00:00 28,0 17,0 9 5 NE - 10
24.05.2018 14:00:00 26,8 16,7 8 4 N 1015,2 25
24.05.2018 13:00:00 26,0 16,0 9 5 ENE - 10
24.05.2018 12:00:00 25,0 18,0 13 7 NNE - 10
24.05.2018 11:00:00 24,0 16,5 11 6 NNE 1016,2 25
24.05.2018 10:00:00 23,0 19,0 13 7 NE - 10
24.05.2018 09:00:00 21,0 19,0 11 6 NE - 10
24.05.2018 08:00:00 19,0 18,0 4 2 N 1016,2 25
24.05.2018 07:00:00 19,0 18,0 9 5 W - 10
24.05.2018 06:00:00 19,0 17,0 13 7 NNE - 10
24.05.2018 05:00:00 - - - - - - -
24.05.2018 04:00:00 - - - - - - -
24.05.2018 03:00:00 - - - - - - -
24.05.2018 02:00:00 - - - - - - -
24.05.2018 01:00:00 - - - - - - -
24.05.2018 00:00:00 - - - - - - -
23.05.2018 23:00:00 - - - - - - -
23.05.2018 22:00:00 20,0 18,0 11 6 NNE - 10
23.05.2018 21:00:00 19,0 19,0 9 5 NE - 10
23.05.2018 20:00:00 20,0 18,3 8 4 WNW 1014,9 25
23.05.2018 19:00:00 20,0 19,0 11 6 SSW - 10
23.05.2018 18:00:00 24,0 19,0 18 10 ESE - 10
23.05.2018 17:00:00 24,8 19,6 8 4 SW 1014,3 25
23.05.2018 16:00:00 23,0 18,0 5 3 WSW - 10
23.05.2018 15:00:00 23,0 19,0 8 4 SW - 10
23.05.2018 14:00:00 23,4 16,5 5 3 ESE 1015,8 25
23.05.2018 13:00:00 23,0 17,0 5 3 ENE - 10
23.05.2018 12:00:00 22,0 17,0 4 2 SE - 10
23.05.2018 11:00:00 20,0 16,7 4 2 NNE 1016,0 25
23.05.2018 10:00:00 19,0 17,0 4 2 WSW - 10
23.05.2018 09:00:00 18,0 16,0 5 3 NNE - 10
23.05.2018 08:00:00 17,2 14,8 4 2 S 1015,4 25
23.05.2018 07:00:00 16,0 14,0 5 3 SSE - 10
23.05.2018 06:00:00 15,0 14,0 9 5 NE - 10
23.05.2018 05:00:00 - - - - - - -
23.05.2018 04:00:00 - - - - - - -
23.05.2018 03:00:00 - - - - - - -
23.05.2018 02:00:00 - - - - - - -
23.05.2018 01:00:00 - - - - - - -
23.05.2018 00:00:00 - - - - - - -
22.05.2018 23:00:00 - - - - - - -
22.05.2018 22:00:00 18,0 17,0 4 2 NE - 10
22.05.2018 21:00:00 19,0 16,0 8 4 NNE - 10
22.05.2018 20:00:00 19,0 16,4 11 6 NNE 1014,6 25
22.05.2018 19:00:00 20,0 17,0 11 6 NE - 10
22.05.2018 18:00:00 19,0 16,0 16 9 NE - 10
22.05.2018 17:00:00 17,8 16,0 16 9 N 1014,7 25
22.05.2018 16:00:00 19,0 16,0 9 5 E - 10
22.05.2018 15:00:00 19,0 15,0 16 9 NNE - 10
22.05.2018 14:00:00 18,4 16,4 18 10 NE 1014,3 30
22.05.2018 13:00:00 18,0 16,0 18 10 NE - 10
22.05.2018 12:00:00 17,0 17,0 13 7 NE - 10

tt = Température de l'air
td = dewpoint
ff = Vitesse du vent
dd = Direction du vent
ppp = reduced air pressure
vv = visibility

stations d'obs. à proximité